{"data":{"norad_id":68558,"intl_designator":"2026-070S","name":"STARLINK-37227","alt_names":[],"object_type":"PAYLOAD","status":"ACTIVE","operator":null,"country":"US","launch_date":"2026-04-02","launch_site_code":"AFETR","launch_vehicle":null,"mission":null,"orbit_class":"UNKNOWN","rcs_meters":null,"size_class":null,"mass_kg":null,"dimensions":null,"purposes":["comms"],"wikipedia_slug":null,"has_3d_model":false,"image_url":null,"decayed_at":null,"tle_current":{"epoch":"2026-05-25T04:00:03.998880Z","epoch_age_seconds":60676,"freshness":"FRESH","line1":"1 68558U 26070S   26145.16671295  .00009209  00000+0  28348-3 0  9999","line2":"2 68558  53.1585   6.7630 0001076  98.4988 205.8939 15.34385053  6013","mean_motion":15.34385053,"eccentricity":0.0001076,"inclination_deg":53.1585,"raan_deg":6.763,"arg_perigee_deg":98.4988,"mean_anomaly_deg":205.8939,"bstar":0.00028348,"rev_number":601,"period_min":93.848672286304,"perigee_km":462.0115870116,"apogee_km":463.48374539176,"semimajor_km":6840.8846662017,"source":"CELESTRAK","updated_at":"2026-05-25T13:38:21.962937Z"}}}